Weather History for Thompson, MB

Change the Weather History Date:

Thursday, February 7, 2013

  Actual Average Record
Temperature  
Mean Temperature -18 °F -  
Max Temperature 5 °F 10 °F 23 °F (2012)
Min Temperature -41 °F -10 °F -41 °F (2013)
Degree Days  
Heating Degree Days 83    
Moisture  
Dew Point -25 °F    
Average Humidity 67    
Maximum Humidity 78    
Minimum Humidity 40    
Precipitation  
Precipitation 0.02 in 0.02 in - ()
Sea Level Pressure  
Sea Level Pressure 30.37 in    
Wind  
Wind Speed 3 mph ()    
Max Wind Speed 10 mph    
Max Gust Speed -    
Visibility 9.9 miles    
Events Snow    
Averages and records for this station are not official NWS values.
T = Trace of Precipitation, MM = Missing Value Source: Averaged Metar Reports

Daily Weather History Graph

Daily Weather History Graph

Search for Another Location

Airport:

Trip Planner

Search our weather history database for the weather conditions in past years. The results will help you decide how hot, cold, wet, or windy it might be!

Date:

Astronomy

Feb. 07, 2013 Rise Set
Actual Time 8:12 AM CST 5:19 PM CST
Civil Twilight 7:33 AM CST 5:59 PM CST
Nautical Twilight 6:49 AM CST 6:43 PM CST
Astronomical Twilight 6:06 AM CST 7:26 PM CST
Moon 6:11 AM CST (2/7) 2:29 PM CST (2/7)
Length of Visible Light 10h 25m
Length of Day
9h 06m
Waning Crescent, 9% of the Moon is Illuminated
Feb 7
Waning Crescent
Feb 10
New
Feb 17
First Quarter
Feb 25
Full
Mar 4
Last Quarter

Hourly Weather History & Observations

Time (CST) Temp. Windchill Dew Point Humidity Pressure Visibility Wind Dir Wind Speed Gust Speed Precip Events Conditions
12:00 AM -36 °F - -43 °F 48% 30.47 in 15 mi Calm Calm - -  
12:00 AM -36.4 °F - -43.6 °F 67% 30.47 in 15.0 mi Calm Calm - N/A   Clear
1:00 AM -38.2 °F - -43.6 °F 74% 30.48 in 15.0 mi Calm Calm - N/A   Clear
2:00 AM -38.2 °F - -45.4 °F 67% 30.49 in 15.0 mi Calm Calm - N/A   Clear
3:00 AM -38.2 °F - -43.6 °F 74% 30.49 in 15.0 mi Calm Calm - N/A   Clear
4:00 AM -38.2 °F - -47.2 °F 61% 30.48 in 15.0 mi Calm Calm - N/A   Clear
5:00 AM -38.2 °F - -45.4 °F 67% 30.47 in 15.0 mi Calm Calm - N/A   Clear
6:00 AM -39 °F - -47 °F 44% 30.48 in 15 mi Calm Calm - -  
7:00 AM -41.8 °F - -47.2 °F 74% 30.47 in 15.0 mi East 2.3 mph - N/A   Clear
8:00 AM -41.8 °F - -47.2 °F 74% 30.47 in 15.0 mi Calm Calm - N/A   Partly Cloudy
9:00 AM -38.2 °F - -43.6 °F 74% 30.47 in 15.0 mi Calm Calm - N/A   Scattered Clouds
10:00 AM -27.4 °F - -34.6 °F 69% 30.46 in 15.0 mi SE 2.3 mph - N/A   Scattered Clouds
11:00 AM -14.8 °F - -23.8 °F 64% 30.45 in 15.0 mi SSE 2.3 mph - N/A   Scattered Clouds
12:00 PM -9 °F - -20 °F 40% 30.41 in 15 mi SE 6.9 mph - -   Clear
12:00 PM -9.4 °F -25.6 °F -20.2 °F 59% 30.41 in 15.0 mi SE 8.1 mph - N/A   Mostly Cloudy
1:00 PM -5.8 °F -19.9 °F -16.6 °F 60% 30.39 in 15.0 mi South 6.9 mph - N/A   Mostly Cloudy
2:00 PM -4.0 °F -20.2 °F -14.8 °F 60% 30.35 in 15.0 mi SSE 9.2 mph - N/A   Mostly Cloudy
3:00 PM -2.2 °F -15.6 °F -13.0 °F 60% 30.32 in 15.0 mi SSE 6.9 mph - N/A Snow Light Snow
3:38 PM - - - N/A% - 3.0 mi SSE 9.2 mph - N/A   Unknown
4:00 PM -2.2 °F -18.9 °F -11.2 °F 66% 30.29 in 5.0 mi SSE 10.4 mph - N/A Snow Light Snow
4:27 PM - - - N/A% - 2.0 mi SE 9.2 mph - N/A   Unknown
4:44 PM - - - N/A% - 1.5 mi SSE 8.1 mph - N/A   Unknown
5:00 PM -0.4 °F -15.7 °F -7.6 °F 72% 30.26 in 1.5 mi SE 9.2 mph - N/A Snow Light Snow
6:00 PM -0 °F - -6 °F 65% 30.23 in 2 mi SE 8.1 mph - - Snow Light Snow
6:00 PM -0.4 °F -14.7 °F -5.8 °F 78% 30.23 in 2.0 mi SE 8.1 mph - N/A Snow Light Snow
7:00 PM 1.4 °F -8.3 °F -4.0 °F 78% 30.22 in 1.5 mi SSE 4.6 mph - N/A Snow Light Snow
7:42 PM - - - N/A% - 1.0 mi South 6.9 mph - N/A   Unknown
8:00 PM 3.2 °F -7.8 °F -2.2 °F 78% 30.20 in 1.5 mi South 5.8 mph - N/A Snow Light Snow
8:23 PM - - - N/A% - 5.0 mi South 6.9 mph - N/A   Unknown
9:00 PM 3.2 °F -6.2 °F -2.2 °F 78% 30.19 in 6.0 mi South 4.6 mph - N/A Snow Light Snow
10:00 PM 5.0 °F -6.9 °F -0.4 °F 78% 30.18 in 8.0 mi SSW 6.9 mph - N/A Snow Light Snow
11:00 PM 5.0 °F -6.9 °F -0.4 °F 78% 30.17 in 8.0 mi SSW 6.9 mph - N/A Snow Light Snow